This demonstration page uses our WeatherBlox Daily Observations layout. Learn more.

Left ArrowRight Arrow

Hourly Observations for April 26, 2023

Temp ( °F °C ) Dew Point ( °F °C ) Humidity (%) Winds ( mph kmh ) Pressure ( in mb ) Visibility ( mi km ) Precip ( " mm )
12:53 am 00:53 Clear 36 2.2 29 -1.7 75 75 WNW 6 9 30.28 1025 10 16 0.00 0.00
1:53 am 01:53 Clear 35 1.7 29 -1.7 78 78 NW 6 9 30.27 1025 10 16 0.00 0.00
2:53 am 02:53 Clear 35 1.7 30 -1.1 82 82 NW 6 9 30.27 1025 10 16 0.00 0.00
3:53 am 03:53 Clear 36 2.2 30 -1.1 79 79 N 8 13 30.27 1025 10 16 0.00 0.00
4:53 am 04:53 Clear 35 1.7 30 -1.1 82 82 N 6 9 30.27 1025 10 16 0.00 0.00
5:53 am 05:53 Mostly Clear 37 2.8 31 -0.6 78 78 N 6 9 30.28 1026 10 16 0.00 0.00
6:53 am 06:53 Mostly Sunny 39 3.9 34 1.1 82 82 NE 5 7 30.30 1026 10 16 0.00 0.00
7:53 am 07:53 Mostly Sunny 43 6.1 31 -0.6 62 62 ENE 12 19 30.31 1027 10 16 0.00 0.00
8:53 am 08:53 Mostly Sunny 44 6.7 29 -1.7 55 55 E 12 19 30.31 1027 10 16 0.00 0.00
9:53 am 09:53 Mostly Sunny 45 7.2 27 -2.8 49 49 ENE 15 24 30.30 1026 10 16 0.00 0.00
10:53 am 10:53 Mostly Sunny 47 8.3 28 -2.2 47 47 ENE 13 20 30.30 1026 10 16 0.00 0.00
11:53 am 11:53 Mostly Sunny 47 8.3 28 -2.2 47 47 E 7 11 30.30 1026 10 16 0.00 0.00
12:53 pm 12:53 Mostly Sunny 49 9.4 27 -2.8 42 42 E 7 11 30.30 1026 10 16 0.00 0.00
1:53 pm 13:53 Mostly Sunny 49 9.4 29 -1.7 46 46 E 10 17 30.29 1026 10 16 0.00 0.00
2:53 pm 14:53 Mostly Sunny 49 9.4 28 -2.2 44 44 NE 10 17 30.28 1026 10 16 0.00 0.00
3:53 pm 15:53 Mostly Sunny 48 8.9 29 -1.7 47 47 E 13 20 30.26 1025 10 16 0.00 0.00
4:53 pm 16:53 Mostly Sunny 48 8.9 28 -2.2 46 46 E 9 15 30.24 1024 10 16 0.00 0.00
5:53 pm 17:53 Mostly Sunny 47 8.3 28 -2.2 47 47 E 12 19 30.23 1024 10 16 0.00 0.00
6:53 pm 18:53 Mostly Sunny 46 7.8 28 -2.2 49 49 E 9 15 30.22 1024 10 16 0.00 0.00
7:53 pm 19:53 Mostly Clear 44 6.7 30 -1.1 57 57 E 9 15 30.22 1023 10 16 0.00 0.00
8:53 pm 20:53 Clear 43 6.1 31 -0.6 62 62 E 9 15 30.21 1023 10 16 0.00 0.00
9:53 pm 21:53 Clear 42 5.6 32 0 67 67 E 7 11 30.21 1023 10 16 0.00 0.00
10:53 pm 22:53 Clear 42 5.6 32 0 67 67 E 6 9 30.21 1023 10 16 0.00 0.00
11:53 pm 23:53 Partly Cloudy 41 5 33 0.6 73 73 E 5 7 30.20 1023 10 16 0.00 0.00

Powered by Vaisala Xweather